User: anonymous   Login
Location: Albany
(35.0000°S, 118.0000°E)
Time: 18:43:33
(UTC-05:00)
Language:

ADEOS Rocket - Orbit

View from above orbital plane
View from above orbital plane
View from above satellite
View from above satellite

Ground track
Ground track

The orbit data is extracted from the following two-line orbital elements,

1 24279U 96046C   16043.94653330 -.00000008 +00000-0 +31928-4 0  9992
2 24279 098.6941 044.1228 0301101 099.2986 321.5651 13.47042340957971
Epoch (UTC): 12 February 2016 22:43:00
Eccentricity: 0.0301101
inclination: 98.6941°
perigee height: 858 km
apogee height: 1308 km
right ascension of ascending node: 44.1228°
argument of perigee: 99.2986°
revolutions per day: 13.47042340
mean anomaly at epoch: 321.5651°
orbit number at epoch: 95797

The dashed part of the orbit path shows where the satellite is in the earth's shadow,  

DLR